Location: Unspecified
(64.9000°N, 0.0000°E)
Time: 18:43:43
(UTC+00:00)

Altair - Pass Details

Date: 24 June 2019
Orbit: 1501 x 1683 km, 47.2° (Epoch: 18 July)

Event Time Altitude Azimuth Distance (km) Brightness Sun altitude
Rises 21:44:39 0° 241° (WSW) 4,753 10.1 2.2°
Reaches altitude 10° 21:48:16 10° 230° (SW) 3,797 9.5 2.0°
Maximum altitude 21:55:54 28° 177° (S) 2,723 8.4 1.6°
Drops below altitude 10° 22:03:44 10° 125° (SE) 3,906 9.1 1.2°
Sets 22:07:30 0° 115° (ESE) 4,912 9.7 1.1°
